Regional Weather Roundup
Issued by NWS Jackson, KY

Home | Current Version | Previous Version | Graphics & Text | Print | Product List | Glossary On
Versions: 1 2 3 4 5 6 7 8 9 10 11 12 13 14 15 16 17 18 19 20 21 22 23 24 25 26 27 28 29 30 31 32 33 34 35 36 37 38 39 40 41 42 43 44 45 46 47 48 49 50
000
ASUS43 KJKL 262210
RWRJKL

EAST KENTUCKY HOURLY WEATHER ROUNDUP
NATIONAL WEATHER SERVICE JACKSON KY
600 PM EDT WED JUL 26 2017

NOTE: "FAIR" INDICATES FEW OR NO CLOUDS BELOW 12,000 FEET WITH
NO SIGNIFICANT WEATHER AND/OR OBSTRUCTIONS TO VISIBILITY.

* THESE REPORTS ARE NOT UNDER NWS QUALITY CONTROL AND MAY NOT
  REPORT WEATHER SUCH AS PRECIPITATION AND FOG.

KYZ079-080-083-085-087-088-110-112-115-119-120-262300
...EASTERN KENTUCKY...

CITY           SKY/WX    TMP DP  RH WIND       PRES   REMARKS
JACKSON          N/A     86  68  54 CALM      30.09F
LONDON           N/A     89  65  44 S3        30.07F HX  91
SOMERSET*        N/A     88  64  45 W6        30.06F
MONTICELLO*      N/A     91  72  53 W12       30.07F HX  98
WILLIAMSBURG*    N/A     90  68  48 S6        30.07S HX  93
MIDDLESBORO*     N/A     89  73  59 W3        30.08F HX  96
PIKE CO APT*     N/A     85  66  53 N3        30.09F
BIG SANDY APT*   N/A     86  67  52 W3        30.09S
MOREHEAD APT*    N/A     86  66  51 N5        30.08F
ASHLAND*         N/A     86  64  48 W7        30.04S
$$

KYZ035-036-041-042-044-050-067-078-099-262300
...CENTRAL KENTUCKY...

CITY           SKY/WX    TMP DP  RH WIND       PRES   REMARKS
MT STERLING*     N/A     88  68  51 W3        30.07F HX  91
FLEMING/MASON*   N/A     83  66  55 CALM      30.08F
DANVILLE*        N/A     90  68  48 SW3       30.06F HX  93
LEXINGTON        N/A     88  66  48 CALM      30.05F HX  90
FRANKFORT        N/A     88  69  53 CALM      30.03F HX  92
LOUISVILLE     PTSUNNY   91  72  53 SW7       30.00F HX  98
LEBANON*         N/A     90  68  48 CALM      30.04F HX  93
GLASGOW*         N/A     90  68  48 W5        30.03S HX  94
BOWLING GREEN  PTSUNNY   95  72  47 NE8       30.01F HX 103
$$

KYZ091>093-OHZ055-061-077-WVZ005-015-034-035-042-262300
...SOUTHERN OHIO/WEST VIRGINIA...

CITY           SKY/WX    TMP DP  RH WIND       PRES   REMARKS
COVINGTON      PTSUNNY   84  68  58 W6        30.05F
COLUMBUS       CLOUDY    80  62  54 S6        30.06F
DAYTON         PTSUNNY   82  61  48 SW7       30.07F
WILMINGTON       N/A     80  64  58 S6        30.06F
HUNTINGTON       N/A     86  62  44 CALM      30.05F
CHARLESTON       N/A     88  61  40 VRB5      30.06F
PINEVILLE*       N/A     83  65  54 MISG      30.15F
BECKLEY          N/A     79  65  62 S3        30.15F
BLUEFIELD        N/A     80  60  50 VRB6      30.18F
LOGAN CO APT*    N/A     86  59  39 CALM      30.10F
$$

VAZ002-007-008-TNZ017-027-036-066-071-262300
...SOUTHWEST VIRGINIA/EAST TENNESSEE...

CITY           SKY/WX    TMP DP  RH WIND       PRES   REMARKS
WISE*            N/A     84  57  39 W6        30.18F
JONESVILLE*      N/A     90  66  45 CALM      30.11S HX  92
ABINGDON*        N/A     88  62  42 CALM      30.14F
BRISTOL          N/A     91  62  37 W10       30.09F HX  91
MORRISTOWN*    CLEAR     90  68  48 NW8       30.07F HX  93
SEVIERVILLE*   PTCLDY    93  63  36 CALM      30.05F HX  94
KNOXVILLE        N/A     92  67  43 NW6       30.05F HX  95
LAFOLLETTE*    PTCLDY    88  70  55 E5        30.10F HX  92
OAK RIDGE        N/A     93  67  42 W3        30.06F HX  96
CROSSVILLE     PTSUNNY   89  67  47 CALM      30.12F HX  92
NASHVILLE      PTSUNNY   96  70  42 W6        30.02F HX 102
$$

...KEY TO REMARKS...
VSB - VISIBILITY IN MILES
WCI - WIND CHILL INDEX
HX  - HEAT INDEX

$$



USA.gov is the U.S. government's official web portal to all federal, state and local government web resources and services.